Tracking 29932 objects as of 4-Dec-2024
HD Live streaming from Space Station
objects crossing your sky now

STARLINK-30533

Track STARLINK-30533 now!
10-day predictions
STARLINK-30533 is classified as:


NORAD ID: 58037
Int'l Code: 2023-156K
Perigee: 557.9 km
Apogee: 559.8 km
Inclination: 53.2 °
Period: 95.7 minutes
Semi major axis: 6929 km
RCS: Unknown
Launch date: October 9, 2023
Source: United States (US)
Launch site: AIR FORCE WESTERN TEST RANGE (AFWTR)
Your satellite tracking list
Your tracking list is empty




NASA's NSSDC Master Catalog

Two Line Element Set (TLE):
1 58037U 23156K   24338.56850903  .00003789  00000-0  28387-3 0  9994
2 58037  53.1583 110.8118 0001327  82.8732 277.2409 15.04927595 64999
Source of the keplerian elements: AFSPC